Volver al catálogo

CZ-6A DEB

ActivoPO
NORAD 55902·DEBRIS·🇨🇳 China

Lanzado Nov 11, 2022 desde Taiyuan Satellite Launch Center

Loading…

Próximos Pases (próximas 24 horas)

TLE

ActualizadoSource: Space-Track

Época: Sep 14, 2026, 22:21 UTC

1 55902U 22151ABA 26257.93150137  .00023484  00000-0  26039-2 0  9996
2 55902  98.5743 326.0272 0036231 328.5148  31.3897 14.86790348202776

Sigue CZ-6A DEB en tiempo real con AllMySat

Download on the App Store